Find Starlink 33726

NORAD ID: 63437 Int'l Des: 2025-069 Owner: SPXS Country: US Constellation: starlink operational
LEOCIRCULAR

Live Position

Loading 3D Globe...

About Starlink 33726

Description loading...

Upcoming Passes

Passes for default location (London). Set your location on the main map for personalized predictions.

Altitude History

Loading altitude history...

Two-Line Element Set

1 63437U 25069E 26124.65257992 .00038412 00000-0 88733-3 0 9995
2 63437 53.1618 241.7753 0001007 78.0466 282.0653 15.42173232 61932
Epoch: May 4, 2026 • Age: 8 hours

Current Status

Altitude 442.0 km
Velocity 7.65 km/s
Sub-Earth Point 35.90°N, 164.42°E
Launch Date Apr 4, 2025
Age 1 years
Type internet

Technical Details

Classification Payload
Mass 575.00 kg
Dry Mass 530.00 kg
Total Mass 575.00 kg
Length 0.30 m
Diameter 4.10 m
Span 29.00 m
Shape Box + pan
Manufacturer SPXS
Bus Type Starlink V2MO
Phase Status In Orbit
Owner/State SPXS/US

Most Searched